Wilmington, DE

3:55 AM EST on December 11, 2019 (GMT -0500)
New Castle County

Weather History for KILG - July, 2019

Change the Weather History Date:

Wednesday, July 31, 2019

  Actual Average Record
Temperature  
Mean Temperature 81 °F 77 °F  
Max Temperature 89 °F 86 °F 102 °F (1954)
Min Temperature 73 °F 68 °F 55 °F (1928)
Degree Days  
Heating Degree Days 0 0  
Month to date heating degree days 0 0  
Since 1 June heating degree days 5 15  
Since 1 July heating degree days 0 0  
Cooling Degree Days 16 12  
Month to date cooling degree days 464 367  
Year to date cooling degree days 862 677  
Since 1 June cooling degree days 730 598  
Growing Degree Days 31 (Base 50)    
Moisture  
Dew Point 70 °F    
Average Humidity 71    
Maximum Humidity 87    
Minimum Humidity 55    
Precipitation  
Precipitation 0.00 in 0.14 in 3.02 in (1985)
Month to date precipitation 5.65 4.57  
Year to date precipitation 33.46 25.51  
Snow  
Snow 0.00 in 0.00 in 0.00 in (1894)
Month to date snowfall 0.0 0.0  
Since 1 June snowfall 0.0 0.0  
Since 1 July snowfall 0.0 0.0  
Snow Depth 0.00 in    
Sea Level Pressure  
Sea Level Pressure 30.01 in    
Wind  
Wind Speed 6 mph (WSW)    
Max Wind Speed 14 mph    
Max Gust Speed 17 mph    
Visibility 10 miles    
Events Thunderstorm    
T = Trace of Precipitation, MM = Missing Value Source: NWS Daily Summary

Daily Weather History Graph

Daily Weather History Graph

Search for Another Location

Airport or City:

Astronomy

Jul. 31, 2019 Rise Set
Actual Time 6:00 AM EDT 8:16 PM EDT
Civil Twilight 5:30 AM EDT 8:46 PM EDT
Nautical Twilight 4:52 AM EDT 9:23 PM EDT
Astronomical Twilight 4:12 AM EDT 10:04 PM EDT
Moon 5:11 AM EDT (7/31) 8:14 PM EDT (7/31)
Length of Visible Light 15h 16m
Length of Day
14h 16m
Waning Crescent, 0% of the Moon is Illuminated
Jul 31
Waning Crescent
Jul 31
New
Aug 7
First Quarter
Aug 15
Full
Aug 23
Last Quarter

Hourly Weather History & Observations

Time (EDT) Temp. Heat Index Dew Point Humidity Pressure Visibility Wind Dir Wind Speed Gust Speed Precip Events Conditions
12:51 AM 79.0 °F - 68.0 °F 69% 30.02 in 10.0 mi SSW 3.5 mph - N/A   Clear
1:51 AM 79.0 °F - 68.0 °F 69% 30.01 in 10.0 mi South 3.5 mph - N/A   Clear
2:51 AM 77.0 °F - 68.0 °F 74% 30.00 in 10.0 mi South 3.5 mph - N/A   Clear
3:51 AM 75.9 °F - 69.1 °F 79% 29.99 in 10.0 mi South 4.6 mph - N/A   Clear
4:51 AM 73.9 °F - 70.0 °F 87% 29.99 in 10.0 mi Calm Calm - N/A   Clear
5:51 AM 75.0 °F - 70.0 °F 84% 30.00 in 10.0 mi Calm Calm - N/A   Clear
6:51 AM 73.9 °F - 70.0 °F 87% 30.01 in 10.0 mi Calm Calm - N/A   Clear
7:51 AM 78.1 °F - 71.1 °F 79% 30.03 in 10.0 mi NW 3.5 mph - N/A   Clear
8:51 AM 80.1 °F 84.2 °F 73.0 °F 79% 30.04 in 10.0 mi Calm Calm - N/A   Clear
9:51 AM 84.0 °F 89.6 °F 72.0 °F 67% 30.04 in 10.0 mi NNW 4.6 mph - N/A   Clear
10:51 AM 86.0 °F 91.5 °F 71.1 °F 61% 30.04 in 10.0 mi Variable 3.5 mph - N/A   Clear
11:51 AM 86.0 °F 93.0 °F 73.0 °F 65% 30.04 in 10.0 mi WSW 6.9 mph - N/A   Scattered Clouds
12:51 PM 88.0 °F 92.1 °F 69.1 °F 53% 30.04 in 10.0 mi WSW 8.1 mph - N/A   Partly Cloudy
1:51 PM 89.1 °F 95.0 °F 71.1 °F 55% 30.01 in 10.0 mi WSW 10.4 mph 17.3 mph N/A   Clear
2:51 PM 88.0 °F 93.8 °F 71.1 °F 57% 30.01 in 10.0 mi WSW 10.4 mph - N/A   Clear
3:51 PM 89.1 °F 95.0 °F 71.1 °F 55% 29.99 in 10.0 mi WSW 12.7 mph - N/A   Clear
4:51 PM 88.0 °F 94.7 °F 72.0 °F 59% 29.98 in 10.0 mi NW 12.7 mph - N/A   Scattered Clouds
5:51 PM 86.0 °F 91.5 °F 71.1 °F 61% 29.98 in 10.0 mi NW 6.9 mph - N/A   Scattered Clouds
5:58 PM 86.0 °F 90.7 °F 70.0 °F 59% 29.98 in 10.0 mi WNW 10.4 mph - N/A Thunderstorm Partly Cloudy
6:19 PM 87.1 °F 92.0 °F 70.0 °F 57% 29.98 in 10.0 mi WNW 10.4 mph - N/A   Clear
6:51 PM 84.0 °F 89.0 °F 71.1 °F 65% 29.99 in 10.0 mi East 6.9 mph - N/A   Scattered Clouds
7:51 PM 81.0 °F 84.4 °F 70.0 °F 69% 30.02 in 10.0 mi ENE 10.4 mph - N/A   Overcast
8:51 PM 79.0 °F - 68.0 °F 69% 30.02 in 10.0 mi NE 8.1 mph - N/A   Overcast
9:51 PM 78.1 °F - 69.1 °F 74% 30.04 in 10.0 mi ENE 6.9 mph - N/A   Overcast
10:51 PM 77.0 °F - 68.0 °F 74% 30.03 in 10.0 mi SSE 3.5 mph - N/A   Clear
11:51 PM 77.0 °F - 70.0 °F 79% 30.05 in 10.0 mi ESE 3.5 mph - N/A   Partly Cloudy